Weather History for Kansas City International, MO

Change the Weather History Date:

Monday, January 28, 2013

  Actual Average Record
Temperature  
Mean Temperature 61 °F 29 °F  
Max Temperature 74 °F 39 °F 74 °F (2013)
Min Temperature 47 °F 20 °F -14 °F (1997)
Degree Days  
Heating Degree Days 4 36  
Month to date heating degree days 884 1008  
Since 1 July heating degree days 2722 3050  
Cooling Degree Days 0 0  
Month to date cooling degree days 0 0  
Year to date cooling degree days 0 0  
Growing Degree Days 10 (Base 50)    
Moisture  
Dew Point 51 °F    
Average Humidity 70    
Maximum Humidity 93    
Minimum Humidity 46    
Precipitation  
Precipitation T in 0.04 in 0.76 in (2001)
Month to date precipitation 0.32 0.94  
Year to date precipitation 0.32 0.94  
Snow  
Snow 0.00 in 0.20 in 3.00 in (2005)
Month to date snowfall T 4.1  
Since 1 July snowfall 3.7 10.3  
Snow Depth 0.00 in    
Sea Level Pressure  
Sea Level Pressure 29.78 in    
Wind  
Wind Speed 14 mph (SE)    
Max Wind Speed 30 mph    
Max Gust Speed 39 mph    
Visibility 6 miles    
Events Rain    
T = Trace of Precipitation, MM = Missing Value Source: NWS Daily Summary

Daily Weather History Graph

Daily Weather History Graph

Search for Another Location

Airport:

Trip Planner

Search our weather history database for the weather conditions in past years. The results will help you decide how hot, cold, wet, or windy it might be!

Date:

Astronomy

Jan. 28, 2013 Rise Set
Actual Time 7:29 AM CST 5:35 PM CST
Civil Twilight 7:00 AM CST 6:03 PM CST
Nautical Twilight 6:28 AM CST 6:36 PM CST
Astronomical Twilight 5:56 AM CST 7:07 PM CST
Moon 7:29 PM CST (1/28) 7:56 AM CST (1/28)
Length of Visible Light 11h 03m
Length of Day
10h 06m
Full, 98% of the Moon is Illuminated
Jan 28
Full
Feb 3
Last Quarter
Feb 10
New
Feb 17
First Quarter
Feb 25
Full

Hourly Weather History & Observations

Time (CST) Temp. Windchill Dew Point Humidity Pressure Visibility Wind Dir Wind Speed Gust Speed Precip Events Conditions
12:23 AM 59.0 °F - 53.6 °F 82% 29.82 in 7.0 mi SSW 15.0 mph 23.0 mph N/A   Overcast
12:53 AM 57.9 °F - 53.1 °F 84% 29.82 in 10.0 mi SSW 10.4 mph - N/A   Overcast
1:32 AM 51.8 °F - 48.2 °F 88% 29.83 in 3.0 mi NW 8.1 mph - N/A   Overcast
1:53 AM 50.0 °F - 48.0 °F 93% 29.83 in 4.0 mi NW 6.9 mph - 0.00 in   Light Drizzle
2:53 AM 48.0 °F - 46.0 °F 93% 29.84 in 4.0 mi North 3.5 mph - 0.00 in   Light Drizzle
3:29 AM 48.2 °F - 46.4 °F 93% 29.84 in 3.0 mi NNE 3.5 mph - 0.00 in   Light Drizzle
3:53 AM 48.0 °F - 46.0 °F 93% 29.83 in 4.0 mi ENE 3.5 mph - 0.00 in   Light Drizzle
4:03 AM 48.2 °F - 46.4 °F 93% 29.84 in 2.5 mi NE 4.6 mph - 0.00 in   Light Drizzle
4:53 AM 48.0 °F - 46.0 °F 93% 29.83 in 2.5 mi ENE 4.6 mph - 0.00 in   Light Drizzle
5:01 AM 48.2 °F - 46.4 °F 93% 29.84 in 0.5 mi NE 5.8 mph - 0.00 in   Light Drizzle
5:08 AM 48.2 °F - 44.6 °F 87% 29.83 in 0.2 mi NNE 5.8 mph - 0.00 in   Light Drizzle
5:53 AM 46.9 °F - 45.0 °F 93% 29.83 in 0.2 mi ENE 4.6 mph - 0.00 in   Overcast
6:26 AM 46.4 °F 42.9 °F 44.6 °F 93% 29.84 in 0.2 mi NE 6.9 mph - N/A   Overcast
6:35 AM 46.4 °F 43.5 °F 44.6 °F 93% 29.84 in 0.2 mi NE 5.8 mph - N/A   Overcast
6:53 AM 46.9 °F - 45.0 °F 93% 29.85 in 0.2 mi ENE 6.9 mph - N/A   Overcast
7:53 AM 46.9 °F - 45.0 °F 93% 29.86 in 0.2 mi ENE 5.8 mph - N/A   Overcast
8:09 AM 48.2 °F - 46.4 °F 93% 29.86 in 1.5 mi ENE 4.6 mph - N/A   Overcast
8:33 AM 48.2 °F - 46.4 °F 93% 29.86 in 2.5 mi ENE 3.5 mph - N/A   Overcast
8:51 AM 50.0 °F - 46.4 °F 87% 29.86 in 3.0 mi East 5.8 mph - N/A   Overcast
8:53 AM 50.0 °F - 46.9 °F 89% 29.85 in 3.0 mi East 5.8 mph - N/A   Overcast
9:53 AM 59.0 °F - 54.0 °F 83% 29.83 in 3.0 mi South 10.4 mph - N/A   Haze
10:53 AM 64.0 °F - 53.1 °F 67% 29.82 in 10.0 mi South 9.2 mph - N/A   Mostly Cloudy
11:11 AM 64.4 °F - 53.6 °F 68% 29.83 in 10.0 mi South 11.5 mph - N/A   Mostly Cloudy
11:53 AM 66.9 °F - 53.1 °F 61% 29.80 in 10.0 mi SSW 20.7 mph 26.5 mph N/A   Mostly Cloudy
12:53 PM 71.1 °F - 52.0 °F 51% 29.75 in 10.0 mi SSW 16.1 mph - N/A   Mostly Cloudy
1:53 PM 73.9 °F - 52.0 °F 46% 29.71 in 10.0 mi South 23.0 mph 28.8 mph N/A   Mostly Cloudy
2:53 PM 73.0 °F - 53.1 °F 49% 29.70 in 10.0 mi South 20.7 mph 29.9 mph N/A   Mostly Cloudy
3:53 PM 72.0 °F - 54.0 °F 53% 29.70 in 10.0 mi SSW 19.6 mph 32.2 mph N/A   Mostly Cloudy
4:53 PM 72.0 °F - 55.0 °F 55% 29.68 in 10.0 mi South 18.4 mph 26.5 mph N/A   Overcast
5:53 PM 69.1 °F - 57.0 °F 65% 29.67 in 10.0 mi South 19.6 mph 26.5 mph N/A   Overcast
6:53 PM 69.1 °F - 57.0 °F 65% 29.67 in 10.0 mi South 18.4 mph 25.3 mph N/A   Mostly Cloudy
7:53 PM 68.0 °F - 57.0 °F 68% 29.67 in 10.0 mi South 21.9 mph 33.4 mph N/A   Mostly Cloudy
8:53 PM 66.9 °F - 57.9 °F 73% 29.66 in 10.0 mi South 23.0 mph 34.5 mph N/A   Mostly Cloudy
9:53 PM 66.9 °F - 57.9 °F 73% 29.65 in 10.0 mi SSW 25.3 mph 39.1 mph N/A   Mostly Cloudy
10:53 PM 66.9 °F - 59.0 °F 76% 29.64 in 10.0 mi SSW 23.0 mph 35.7 mph N/A   Mostly Cloudy
11:53 PM 66.9 °F - 59.0 °F 76% 29.62 in 10.0 mi South 23.0 mph 33.4 mph N/A   Overcast